Change the Weather History Date:

Tuesday, October 9, 2012

  Actual Average Record
Temperature  
Mean Temperature 50 °F -  
Max Temperature 57 °F 70 °F 90 °F (2007)
Min Temperature 44 °F 50 °F 29 °F (1987)
Degree Days  
Heating Degree Days 14    
Moisture  
Dew Point 46 °F    
Average Humidity 85    
Maximum Humidity 97    
Minimum Humidity 69    
Precipitation  
Precipitation 0.00 in - - ()
Sea Level Pressure  
Sea Level Pressure 30.15 in    
Wind  
Wind Speed 6 mph (NNE)    
Max Wind Speed 12 mph    
Max Gust Speed 17 mph    
Visibility 9 miles    
Events      
Averages and records for this station are not official NWS values.
T = Trace of Precipitation, MM = Missing Value Source: NWS Daily Summary

Daily Weather History Graph

Daily Weather History Graph

Search for Another Location

Airport or City:

Trip Planner

Search our weather history database for the weather conditions in past years. The results will help you decide how hot, cold, wet, or windy it might be!

Date:

Astronomy

Oct. 09, 2012 Rise Set
Actual Time 7:23 AM EDT 6:52 PM EDT
Civil Twilight 6:57 AM EDT 7:18 PM EDT
Nautical Twilight 6:27 AM EDT 7:47 PM EDT
Astronomical Twilight 5:57 AM EDT 8:17 PM EDT
Moon 1:08 AM EDT (10/9) 3:09 PM EDT (10/9)
Length of Visible Light 12h 20m
Length of Day
11h 29m
Last Quarter, 37% of the Moon is Illuminated
Oct 9
Last Quarter
Oct 15
New
Oct 21
First Quarter
Oct 29
Full
Nov 6
Last Quarter

Hourly Weather History & Observations

Time (EDT) Temp. Windchill Dew Point Humidity Pressure Visibility Wind Dir Wind Speed Gust Speed Precip Events Conditions
12:54 AM 44.1 °F 39.0 °F 43.0 °F 96% 30.17 in 4.0 mi NNE 9.2 mph 17.3 mph N/A   Overcast
1:54 AM 45.0 °F 39.3 °F 43.0 °F 93% 30.17 in 6.0 mi NNE 11.5 mph - N/A   Overcast
2:54 AM 45.0 °F 41.2 °F 43.0 °F 93% 30.16 in 5.0 mi NNE 6.9 mph - N/A   Overcast
3:54 AM 44.6 °F 40.2 °F 42.8 °F 93% 30.15 in 6.0 mi NNE 8.1 mph - N/A   Overcast
4:54 AM 45.0 °F 40.1 °F 43.0 °F 93% 30.15 in 8.0 mi NNE 9.2 mph - N/A   Overcast
5:54 AM 45.0 °F 41.8 °F 43.0 °F 93% 30.16 in 10.0 mi NNE 5.8 mph - N/A   Overcast
6:54 AM 45.0 °F 41.2 °F 43.0 °F 93% 30.17 in 7.0 mi NNE 6.9 mph - N/A   Overcast
7:54 AM 45.0 °F 41.2 °F 44.1 °F 97% 30.19 in 10.0 mi NNE 6.9 mph - N/A   Overcast
8:54 AM 46.0 °F 42.5 °F 44.1 °F 93% 30.20 in 10.0 mi NNE 6.9 mph - N/A   Overcast
9:54 AM 48.0 °F - 44.1 °F 86% 30.20 in 10.0 mi NNE 5.8 mph - N/A   Overcast
10:02 AM 48.2 °F - 44.6 °F 87% 30.20 in 10.0 mi NE 8.1 mph - N/A   Overcast
10:10 AM 48.2 °F - 44.6 °F 87% 30.20 in 10.0 mi NE 6.9 mph - N/A   Overcast
10:54 AM 50.0 °F - 45.0 °F 83% 30.19 in 10.0 mi NNE 6.9 mph - N/A   Overcast
11:54 AM 53.1 °F - 45.0 °F 74% 30.18 in 10.0 mi NNE 4.6 mph - N/A   Overcast
12:54 PM 55.0 °F - 46.9 °F 74% 30.16 in 10.0 mi Variable 3.5 mph - N/A   Overcast
1:54 PM 57.0 °F - 46.9 °F 69% 30.12 in 10.0 mi Calm Calm - N/A   Overcast
2:54 PM 55.9 °F - 48.0 °F 75% 30.12 in 10.0 mi Calm Calm - N/A   Overcast
3:54 PM 57.0 °F - 48.9 °F 74% 30.10 in 10.0 mi SE 3.5 mph - N/A   Overcast
4:54 PM 57.9 °F - 48.9 °F 72% 30.11 in 10.0 mi Calm Calm - N/A   Overcast
5:18 PM 57.2 °F - 48.2 °F 72% 30.11 in 10.0 mi Calm Calm - N/A   Overcast
5:54 PM 57.0 °F - 50.0 °F 77% 30.10 in 10.0 mi Calm Calm - N/A   Overcast
6:54 PM 55.9 °F - 51.1 °F 84% 30.10 in 10.0 mi Calm Calm - N/A   Overcast
7:54 PM 55.9 °F - 51.1 °F 84% 30.10 in 10.0 mi Calm Calm - N/A   Overcast
8:54 PM 55.0 °F - 52.0 °F 89% 30.10 in 10.0 mi Calm Calm - N/A   Overcast
9:54 PM 52.0 °F - 50.0 °F 93% 30.11 in 10.0 mi Calm Calm - N/A   Partly Cloudy
10:54 PM 51.1 °F - 48.9 °F 92% 30.11 in 10.0 mi Calm Calm - N/A   Scattered Clouds
11:54 PM 53.1 °F - 50.0 °F 89% 30.10 in 10.0 mi Calm Calm - N/A   Overcast